Location: Waco, TX
(31.5480°N, 97.1670°W)
Time: 21:53:18
(UTC-06:00)

ISS - Pass Details

Date: 21 February 2019
Orbit: 403 x 411 km, 51.6° (Epoch: 22 February)

Event Time Altitude Azimuth Distance (km) Brightness Sun altitude
Rises 13:51:26 0° 327° (NNW) 2,322 -0.2 44.9°
Reaches altitude 10° 13:53:47 10° 341° (NNW) 1,461 -1.2 44.7°
Maximum altitude 13:56:31 24° 38° (NE) 886 -2.3 44.4°
Drops below altitude 10° 13:59:15 10° 95° (E) 1,459 -1.1 44.1°
Sets 14:01:35 0° 110° (ESE) 2,318 0.0 43.9°
